When you browse on this site, cookies collect data to enhance your experience and personalize the content and advertising you see.
Visit our Privacy Policy to learn more. By continuing to use the site, you agree to this use of cookies and data.
  • In France
  • List of Countries
  • For 7 days
  • Water Temperature
  • Satellite Maps
  • Weather Map
  • Weather Widgets
  • user-avatar
    Login

    Hourly Weather Ghazni

    Today, 16 January, Wednesday

    Time Temperature Precipitation Wind Pressure Humidity
    00:00 +4°C° 0 mm 1 mps 583 mmHg 35%
    01:00 +4°C° 0 mm 1 mps 583 mmHg 37%
    02:00 +3°C° 0 mm 1 mps 583 mmHg 38%
    03:00 +3°C° 0 mm 1 mps 583 mmHg 40%
    04:00 +2°C° 0 mm 1 mps 582 mmHg 42%
    05:00 +2°C° 0 mm 1 mps 582 mmHg 44%
    06:00 +2°C° 0 mm 1 mps 582 mmHg 45%
    07:00 +2°C° 0 mm 1 mps 582 mmHg 47%
    08:00 +2°C° 0 mm 1 mps 583 mmHg 48%
    09:00 +3°C° 0 mm 1 mps 583 mmHg 45%
    10:00 +5°C° 0 mm 1 mps 584 mmHg 41%
    11:00 +7°C° 0 mm 1 mps 585 mmHg 37%
    12:00 +8°C° 0 mm 1 mps 585 mmHg 34%
    13:00 +8°C° 0 mm 2 mps 586 mmHg 31%
    14:00 +9°C° 0 mm 2 mps 586 mmHg 28%
    15:00 +8°C° 0 mm 2 mps 586 mmHg 29%
    16:00 +8°C° 0 mm 2 mps 585 mmHg 30%
    17:00 +8°C° 0 mm 1 mps 585 mmHg 30%
    18:00 +5°C° 0 mm 2 mps 585 mmHg 33%
    19:00 +4°C° 0 mm 2 mps 585 mmHg 37%
    20:00 +2°C° 0 mm 3 mps 585 mmHg 40%
    21:00 +1°C° 0 mm 3 mps 585 mmHg 38%
    22:00 +1°C° 0 mm 2 mps 585 mmHg 37%
    23:00 +1°C° 0 mm 2 mps 585 mmHg 36%

    Tomorrow, 17 January, Thursday

    Time Temperature Precipitation Wind Pressure Humidity
    00:00 -1°C° 0 mm 2 mps 585 mmHg 34%
    01:00 -1°C° 0 mm 2 mps 585 mmHg 32%
    02:00 -1°C° 0 mm 2 mps 585 mmHg 31%
    03:00 -2°C° 0 mm 2 mps 585 mmHg 30%
    04:00 -2°C° 0 mm 2 mps 585 mmHg 30%
    05:00 -2°C° 0 mm 2 mps 584 mmHg 29%
    06:00 -2°C° 0 mm 2 mps 585 mmHg 29%
    07:00 -2°C° 0 mm 2 mps 585 mmHg 28%
    08:00 -3°C° 0 mm 2 mps 585 mmHg 28%
    09:00 -1°C° 0 mm 2 mps 586 mmHg 26%
    10:00 +3°C° 0 mm 1 mps 586 mmHg 25%
    11:00 +4°C° 0 mm 1 mps 587 mmHg 23%
    12:00 +5°C° 0 mm 1 mps 586 mmHg 23%
    13:00 +6°C° 0 mm 1 mps 586 mmHg 23%
    14:00 +7°C° 0 mm 1 mps 585 mmHg 23%
    15:00 +6°C° 0 mm 1 mps 585 mmHg 26%
    16:00 +6°C° 0 mm 1 mps 585 mmHg 28%
    17:00 +6°C° 0 mm 1 mps 585 mmHg 31%
    18:00 +5°C° 0 mm 1 mps 585 mmHg 33%
    19:00 +4°C° 0 mm 1 mps 585 mmHg 35%
    20:00 +3°C° 0 mm 1 mps 585 mmHg 37%
    21:00 +3°C° 0 mm 1 mps 585 mmHg 38%
    22:00 +3°C° 0 mm 1 mps 585 mmHg 39%
    23:00 +4°C° 0 mm 1 mps 585 mmHg 40%

    Day after tomorrow, 18 January, Friday

    Time Temperature Precipitation Wind Pressure Humidity
    00:00 +3°C° 0 mm 1 mps 585 mmHg 42%
    01:00 +3°C° 0 mm 1 mps 585 mmHg 44%
    02:00 +3°C° 0 mm 1 mps 584 mmHg 46%
    03:00 +3°C° 0.1 mm 1 mps 584 mmHg 49%
    04:00 +1°C° 0.1 mm 2 mps 584 mmHg 52%
    05:00 +1°C° 0.1 mm 2 mps 583 mmHg 55%
    06:00 +1°C° 0.1 mm 2 mps 584 mmHg 58%
    07:00 +1°C° 0.1 mm 2 mps 584 mmHg 62%
    08:00 0°C° 0.1 mm 3 mps 584 mmHg 65%
    09:00 +1°C° 0.3 mm 2 mps 584 mmHg 67%
    10:00 +2°C° 0.3 mm 2 mps 584 mmHg 69%
    11:00 +2°C° 0.3 mm 2 mps 584 mmHg 71%
    12:00 +2°C° 0.4 mm 2 mps 584 mmHg 72%
    13:00 +2°C° 0.4 mm 2 mps 583 mmHg 73%
    14:00 +3°C° 0.4 mm 1 mps 583 mmHg 74%
    15:00 +3°C° 0.1 mm 2 mps 583 mmHg 75%
    16:00 +3°C° 0.1 mm 2 mps 583 mmHg 76%
    17:00 +3°C° 0.1 mm 2 mps 583 mmHg 77%
    18:00 +3°C° 0.3 mm 2 mps 583 mmHg 80%
    19:00 +3°C° 0.3 mm 2 mps 584 mmHg 83%
    20:00 +3°C° 0.3 mm 1 mps 584 mmHg 86%
    21:00 +2°C° 0.3 mm 2 mps 584 mmHg 86%
    22:00 +2°C° 0.3 mm 2 mps 585 mmHg 86%
    23:00 +2°C° 0.3 mm 2 mps 585 mmHg 86%

    19 January, Saturday

    Time Temperature Precipitation Wind Pressure Humidity
    00:00 +1°C° 0.9 mm 2 mps 584 mmHg 88%
    01:00 +1°C° 0.9 mm 2 mps 584 mmHg 90%
    02:00 +1°C° 0.9 mm 2 mps 584 mmHg 92%
    03:00 -1°C° 1.3 mm 2 mps 584 mmHg 93%
    04:00 -1°C° 1.3 mm 2 mps 584 mmHg 94%
    05:00 -1°C° 1.3 mm 2 mps 583 mmHg 96%
    06:00 -1°C° 0.7 mm 2 mps 584 mmHg 95%
    07:00 -1°C° 0.7 mm 2 mps 584 mmHg 94%
    08:00 -2°C° 0.7 mm 2 mps 584 mmHg 93%
    09:00 -1°C° 0.4 mm 2 mps 584 mmHg 94%
    10:00 -1°C° 0.4 mm 2 mps 584 mmHg 94%
    11:00 -1°C° 0.4 mm 2 mps 584 mmHg 95%
    12:00 +1°C° 0.1 mm 2 mps 583 mmHg 95%
    13:00 +1°C° 0.1 mm 2 mps 583 mmHg 95%
    14:00 +1°C° 0.1 mm 2 mps 582 mmHg 95%
    15:00 +1°C° 0.3 mm 2 mps 582 mmHg 95%
    16:00 +2°C° 0.3 mm 2 mps 582 mmHg 94%
    17:00 +2°C° 0.3 mm 2 mps 582 mmHg 94%
    18:00 +2°C° 1.2 mm 2 mps 582 mmHg 93%
    19:00 +2°C° 1.2 mm 1 mps 583 mmHg 93%
    20:00 +2°C° 1.2 mm 1 mps 583 mmHg 92%
    21:00 +1°C° 0.4 mm 2 mps 583 mmHg 92%
    22:00 +1°C° 0.4 mm 2 mps 583 mmHg 91%
    23:00 -1°C° 0.4 mm 2 mps 583 mmHg 90%

    20 January, Sunday

    Time Temperature Precipitation Wind Pressure Humidity
    00:00 -1°C° 0.3 mm 2 mps 582 mmHg 90%
    01:00 -1°C° 0.3 mm 2 mps 582 mmHg 90%
    02:00 0°C° 0.3 mm 1 mps 582 mmHg 91%
    03:00 -2°C° 0.6 mm 2 mps 581 mmHg 92%
    04:00 -2°C° 0.6 mm 2 mps 581 mmHg 93%
    05:00 -2°C° 0.6 mm 2 mps 581 mmHg 95%
    06:00 -2°C° 0.4 mm 2 mps 581 mmHg 95%
    07:00 -2°C° 0.4 mm 2 mps 582 mmHg 96%
    08:00 -2°C° 0.4 mm 2 mps 582 mmHg 96%
    09:00 -2°C° 0.8 mm 2 mps 582 mmHg 97%
    10:00 -1°C° 0.8 mm 2 mps 582 mmHg 97%
    11:00 -1°C° 0.8 mm 2 mps 581 mmHg 98%
    12:00 -1°C° 0.5 mm 2 mps 581 mmHg 98%
    13:00 -1°C° 0.5 mm 3 mps 580 mmHg 98%
    14:00 -1°C° 0.5 mm 3 mps 580 mmHg 98%
    15:00 -1°C° 0.3 mm 3 mps 579 mmHg 97%
    16:00 -1°C° 0.3 mm 3 mps 579 mmHg 96%
    17:00 -1°C° 0.3 mm 3 mps 579 mmHg 95%
    18:00 -2°C° 0.1 mm 2 mps 579 mmHg 95%
    19:00 -3°C° 0.1 mm 2 mps 579 mmHg 95%
    20:00 -2°C° 0.1 mm 1 mps 580 mmHg 95%
    21:00 -2°C° 0 mm 1 mps 580 mmHg 95%
    22:00 -3°C° 0 mm 1 mps 580 mmHg 95%
    23:00 -5°C° 0 mm 0 mps 580 mmHg 95%

    21 January, Monday

    Time Temperature Precipitation Wind Pressure Humidity
    00:00 -4°C° 0 mm 1 mps 580 mmHg 94%
    01:00 -6°C° 0 mm 1 mps 580 mmHg 93%
    02:00 -6°C° 0 mm 1 mps 579 mmHg 92%
    03:00 -7°C° 0 mm 1 mps 579 mmHg 89%
    04:00 -8°C° 0 mm 2 mps 579 mmHg 87%
    05:00 -8°C° 0 mm 2 mps 579 mmHg 85%
    06:00 -9°C° 0 mm 2 mps 579 mmHg 83%
    07:00 -9°C° 0 mm 2 mps 579 mmHg 80%
    08:00 -9°C° 0 mm 2 mps 580 mmHg 78%
    09:00 -8°C° 0 mm 2 mps 580 mmHg 77%
    10:00 -6°C° 0 mm 2 mps 581 mmHg 76%
    11:00 -3°C° 0 mm 1 mps 581 mmHg 75%
    12:00 -2°C° 0 mm 1 mps 581 mmHg 73%
    13:00 -2°C° 0 mm 1 mps 580 mmHg 71%
    14:00 -1°C° 0 mm 1 mps 580 mmHg 70%
    15:00 -2°C° 0 mm 1 mps 579 mmHg 72%
    16:00 -3°C° 0 mm 1 mps 579 mmHg 74%
    17:00 -5°C° 0 mm 0 mps 578 mmHg 76%
    18:00 -6°C° 0 mm 1 mps 579 mmHg 74%
    19:00 -8°C° 0 mm 2 mps 579 mmHg 73%
    20:00 -9°C° 0 mm 2 mps 580 mmHg 72%
    21:00 -9°C° 0 mm 2 mps 580 mmHg 70%
    22:00 -9°C° 0 mm 2 mps 580 mmHg 69%
    23:00 -12°C° 0 mm 3 mps 580 mmHg 68%
    Show more